Hourly Data Report for March 25, 2021

OTTAWA INTL A
ONTARIO
Current Station Operator: NAVCAN

45°19'00.000" N
75°40'00.000" W
114.90 m
6106001
71628
YOW

Download Data

Hourly Data (March 2021)
Hourly Data Report for March 25, 2021
TIME
LST
Temp Definition
°C
Dew Point Definition
°C
Rel Hum Definition
%
Precip. Amount Definition
mm

Wind Dir Definition
10's deg

Wind Spd Definition
km/h
Visibility Definition
km
Stn Press Definition
kPa
Hmdx Definition


Wind Chill Definition


Weather Definition


00:00 10.2 9.1 93   12 14 24.1 99.74     LegendNANA
01:00 9.4 8.6 95   36 3 24.1 99.79     Mostly Cloudy
02:00 8.0 7.7 98   14 10 12.9 99.74     LegendNANA
03:00 7.8 7.3 97   7 9 8.1 99.69     Thunderstorms,Fog
04:00 8.0 7.7 98   18 7 16.1 99.72     Cloudy
05:00 9.3 9.0 98   21 10 16.1 99.75     LegendNANA
06:00 9.9 9.4 97   20 14 24.1 99.81     LegendNANA
07:00 10.2 9.6 96   20 18 24.1 99.83     Mostly Cloudy
08:00 11.1 10.2 94   21 17 24.1 99.84     LegendNANA
09:00 12.3 10.5 88   21 19 24.1 99.89     LegendNANA
10:00 14.5 10.4 76   21 17 24.1 99.87     Mainly Clear
11:00 16.8 10.3 65   21 18 24.1 99.90     LegendNANA
12:00 18.6 8.7 52   22 23 24.1 99.91     LegendNANA
13:00 18.9 8.2 50   23 25 24.1 99.90     Mostly Cloudy
14:00 18.9 8.1 49   22 24 24.1 99.89     LegendNANA
15:00 18.6 7.3 47   22 23 24.1 99.88     LegendNANA
16:00 18.5 7.4 48   21 17 24.1 99.82     Cloudy
17:00 17.2 7.2 51   19 14 24.1 99.84     LegendNANA
18:00 15.6 6.8 56   20 10 40.2 99.84     LegendNANA
19:00 13.7 6.2 60   29 14 24.1 99.84     Cloudy
20:00 10.7 5.4 70   29 11 24.1 99.87     LegendNANA
21:00 9.6 5.2 74   31 10 24.1 99.84     LegendNANA
22:00 10.7 5.5 70   34 18 24.1 99.75     Cloudy
23:00 11.0 4.5 64   35 15 24.1 99.73     LegendNANA

Notes on Data Quality.

Legend

  • E = Estimated
  • M = Missing
  • NA = Not Available*
  • [empty] = Indicates an unobserved value
Date modified: